Location: Asheville, NC
(35.6000°N, 82.5500°W)
Time: 04:04:18
(UTC-04:00)

Iridium 28 - Pass Details

Date: 09 January 2018
Orbit: 771 x 775 km, 86.4° (Epoch: 16 July)

Event Time Altitude Azimuth Distance (km) Brightness Sun altitude
Rises 17:59:47 0° 1° (N) 3,256 8.5 -5.4°
Reaches altitude 10° 18:02:09 10° 4° (N) 2,325 7.7 -5.9°
Maximum altitude 18:07:20 67° 87° (E) 838 5.5 -6.8°
Drops below altitude 10° 18:12:29 10° 170° (S) 2,311 8.1 -7.8°
Sets 18:14:49 0° 173° (S) 3,234 8.9 -8.3°
